TimeCDT,TemperatureF,Dew PointF,Humidity,Sea Level PressureIn,VisibilityMPH,Wind Direction,Wind SpeedMPH,Gust SpeedMPH,PrecipitationIn,Events,Conditions,WindDirDegrees,DateUTC
12:21 AM,71.6,66.2,83,29.97,1.8,Calm,Calm,-,N/A,,Clear,0,2013-09-08 05:21:00
12:53 AM,71.1,66.9,87,29.95,5.0,Calm,Calm,-,N/A,,Clear,0,2013-09-08 05:53:00
1:00 AM,71.6,68.0,88,29.96,1.5,Calm,Calm,-,N/A,,Clear,0,2013-09-08 06:00:00
1:08 AM,69.8,68.0,94,29.96,0.5,Calm,Calm,-,N/A,Fog,Fog,0,2013-09-08 06:08:00
1:17 AM,69.8,66.2,88,29.96,2.0,Calm,Calm,-,N/A,,Clear,0,2013-09-08 06:17:00
1:24 AM,69.8,66.2,88,29.96,5.0,Calm,Calm,-,N/A,,Clear,0,2013-09-08 06:24:00
1:35 AM,69.8,66.2,88,29.96,1.5,Calm,Calm,-,N/A,,Clear,0,2013-09-08 06:35:00
1:44 AM,69.8,66.2,88,29.96,0.8,Calm,Calm,-,N/A,,Clear,0,2013-09-08 06:44:00
1:50 AM,69.8,66.2,88,29.96,2.0,Calm,Calm,-,N/A,,Clear,0,2013-09-08 06:50:00
1:53 AM,70.0,66.9,90,29.94,2.5,Calm,Calm,-,N/A,,Clear,0,2013-09-08 06:53:00
2:16 AM,69.8,66.2,88,29.96,1.8,Calm,Calm,-,N/A,,Clear,0,2013-09-08 07:16:00
2:20 AM,69.8,66.2,88,29.96,3.0,Calm,Calm,-,N/A,,Clear,0,2013-09-08 07:20:00
2:32 AM,69.8,66.2,88,29.96,2.0,Calm,Calm,-,N/A,,Clear,0,2013-09-08 07:32:00
2:43 AM,69.8,66.2,88,29.95,5.0,Calm,Calm,-,N/A,,Clear,0,2013-09-08 07:43:00
2:53 AM,71.1,66.9,87,29.94,5.0,Calm,Calm,-,N/A,,Clear,0,2013-09-08 07:53:00
3:53 AM,69.1,66.0,90,29.93,4.0,Calm,Calm,-,N/A,,Clear,0,2013-09-08 08:53:00
4:10 AM,68.0,64.4,88,29.95,1.8,Calm,Calm,-,N/A,,Clear,0,2013-09-08 09:10:00
4:24 AM,69.8,64.4,83,29.95,2.5,Calm,Calm,-,N/A,,Clear,0,2013-09-08 09:24:00
4:40 AM,68.0,64.4,88,29.95,3.0,Calm,Calm,-,N/A,,Clear,0,2013-09-08 09:40:00
4:43 AM,68.0,64.4,88,29.95,1.8,Calm,Calm,-,N/A,,Clear,0,2013-09-08 09:43:00
4:53 AM,68.0,64.9,90,29.94,0.5,Calm,Calm,-,N/A,Fog,Fog,0,2013-09-08 09:53:00
5:36 AM,69.8,66.2,88,29.94,2.0,Calm,Calm,-,N/A,,Clear,0,2013-09-08 10:36:00
5:53 AM,68.0,64.9,90,29.94,0.8,Calm,Calm,-,N/A,,Clear,0,2013-09-08 10:53:00
6:04 AM,68.0,64.4,88,29.95,1.8,Calm,Calm,-,N/A,,Clear,0,2013-09-08 11:04:00
6:27 AM,66.2,64.4,94,29.96,3.0,Calm,Calm,-,N/A,,Clear,0,2013-09-08 11:27:00
6:40 AM,68.0,64.4,88,29.96,1.5,Calm,Calm,-,N/A,,Clear,0,2013-09-08 11:40:00
6:50 AM,68.0,64.4,88,29.96,0.8,Calm,Calm,-,N/A,,Clear,0,2013-09-08 11:50:00
6:53 AM,68.0,64.9,90,29.94,1.2,Calm,Calm,-,N/A,,Clear,0,2013-09-08 11:53:00
7:09 AM,69.8,64.4,83,29.96,2.0,Calm,Calm,-,N/A,,Clear,0,2013-09-08 12:09:00
7:37 AM,69.8,66.2,88,29.95,4.0,Calm,Calm,-,N/A,,Clear,0,2013-09-08 12:37:00
7:53 AM,72.0,68.0,87,29.94,4.0,Calm,Calm,-,N/A,,Clear,0,2013-09-08 12:53:00
8:53 AM,77.0,69.1,76,29.96,6.0,Calm,Calm,-,N/A,,Haze,0,2013-09-08 13:53:00
9:53 AM,80.1,71.1,74,29.96,9.0,Calm,Calm,-,N/A,,Clear,0,2013-09-08 14:53:00
10:53 AM,84.0,71.1,65,29.97,9.0,Calm,Calm,-,N/A,,Clear,0,2013-09-08 15:53:00
11:53 AM,88.0,72.0,59,29.96,10.0,Variable,3.5,-,N/A,,Clear,0,2013-09-08 16:53:00
12:53 PM,91.0,73.0,55,29.95,10.0,Variable,4.6,-,N/A,,Clear,0,2013-09-08 17:53:00
1:53 PM,89.1,72.0,57,29.94,10.0,NE,9.2,-,N/A,,Clear,40,2013-09-08 18:53:00
2:53 PM,87.1,71.1,59,29.92,10.0,Calm,Calm,-,N/A,,Clear,0,2013-09-08 19:53:00
3:53 PM,87.1,73.0,63,29.89,10.0,Calm,Calm,-,N/A,,Clear,0,2013-09-08 20:53:00
4:53 PM,90.0,73.9,59,29.89,9.0,Calm,Calm,-,N/A,,Clear,0,2013-09-08 21:53:00
5:53 PM,87.1,75.9,69,29.89,8.0,North,3.5,-,N/A,,Clear,360,2013-09-08 22:53:00
6:53 PM,82.9,75.9,79,29.89,7.0,NW,5.8,-,0.00,Rain,Light Rain,320,2013-09-08 23:53:00
7:53 PM,80.1,73.9,81,29.90,7.0,Calm,Calm,-,0.00,,Scattered Clouds,0,2013-09-09 00:53:00
8:53 PM,77.0,73.0,88,29.91,4.0,Calm,Calm,-,N/A,,Partly Cloudy,0,2013-09-09 01:53:00
9:53 PM,78.1,73.9,87,29.92,5.0,Calm,Calm,-,N/A,,Mostly Cloudy,0,2013-09-09 02:53:00
10:53 PM,77.0,73.0,88,29.92,4.0,Calm,Calm,-,N/A,,Mostly Cloudy,0,2013-09-09 03:53:00
11:53 PM,75.9,73.0,91,29.93,3.0,Calm,Calm,-,N/A,,Overcast,0,2013-09-09 04:53:00